This is the latest recevied weather packets stored in our database for station/object GCEMA. If no packets are shown the sender has not sent any weather packets the latest 10 day(s).
| Time | Temp. | Humidity | Pressure | Rain* | Wind** | Luminosity | Snow |
|---|---|---|---|---|---|---|---|
| 1777725604 | 11.11° C | - | 1016.4 hPa | 0 mm | 0 m/s | - | - |
| 1777725424 | 10.56° C | - | 1016.4 hPa | 0 mm | 0 m/s | - | - |
| 1777725244 | 8.89° C | - | 1016.4 hPa | 0 mm | 0 m/s | - | - |
| 1777725064 | 8.89° C | - | 1016.3 hPa | 0 mm | 0 m/s | - | - |
| 1777724882 | 8.89° C | - | 1016.2 hPa | 0 mm | 0 m/s | - | - |
| 1777724702 | 8.89° C | - | 1016.3 hPa | 0 mm | 0 m/s | - | - |
| 1777724523 | 8.89° C | - | 1016.4 hPa | 0 mm | 0 m/s | - | - |
| 1777723981 | 10° C | - | 1016.2 hPa | 0 mm | 0 m/s | - | - |
| 1777723802 | 8.33° C | - | 1016.2 hPa | 0 mm | 0 m/s | - | - |
| 1777723622 | 10.56° C | - | 1016.1 hPa | 0 mm | 0 m/s | - | - |
| 1777723442 | 10.56° C | - | 1016 hPa | 0 mm | 0 m/s | - | - |
| 1777723263 | 10.56° C | - | 1015.9 hPa | 0 mm | 0 m/s | - | - |
| 1777723082 | 11.11° C | - | 1015.9 hPa | 0 mm | 0 m/s | - | - |
| 1777722901 | 11.11° C | - | 1015.7 hPa | 0 mm | 0 m/s | - | - |
| 1777722721 | 11.11° C | - | 1015.6 hPa | 0 mm | 0 m/s | - | - |
| 1777722542 | 11.11° C | - | 1015.6 hPa | 0 mm | 0 m/s | - | - |
| 1777722362 | 10.56° C | - | 1015.6 hPa | 0 mm | 0 m/s | - | - |
| 1777722181 | 10.56° C | - | 1015.6 hPa | 0 mm | 0 m/s | - | - |
| 1777721822 | 10° C | - | 1015.6 hPa | 0 mm | 0 m/s | - | - |
| 1777721641 | 10° C | - | 1015.6 hPa | 0 mm | 0 m/s | - | - |
| 1777721461 | 10° C | - | 1015.6 hPa | 0 mm | 0 m/s | - | - |
| 1777721279 | 10° C | - | 1015.6 hPa | 0 mm | 0 m/s | - | - |
| 1777721099 | 10.56° C | - | 1015.6 hPa | 0 mm | 0 m/s | - | - |
| 1777720920 | 10.56° C | - | 1015.6 hPa | 0 mm | 0 m/s | - | - |
| 1777720741 | 10° C | - | 1015.6 hPa | 0 mm | 0 m/s | - | - |
* Rain latest hour (hover to see other rain measurements)
** Current wind speed in m/s (hover to see current wind gust speed)